Location: Poughquag
(41.6090°N, 73.6820°W)
Time: 07:17:20
(UTC-04:00)

Tiros 1 despin weight - All Passes

Search period start: 29 May 2020 00:00
Search period end: 08 June 2020 00:00
Orbit: 594 x 642 km, 48.2° (Epoch: 28 May)

Date Brightness Start Highest point End Pass type
(mag) Time Alt. Az. Time Alt. Az. Time Alt. Az.
29 May - 10:33:34 10° S 10:37:12 23° SE 10:40:48 10° E daylight
29 May - 12:13:47 10° WSW 12:18:24 83° NNW 12:22:59 10° ENE daylight
29 May - 13:56:06 10° WNW 14:00:22 37° N 14:04:35 10° ENE daylight
29 May - 15:38:18 10° WNW 15:42:36 41° NNE 15:46:51 10° E daylight
29 May - 17:19:55 10° WNW 17:24:24 74° SSW 17:28:49 10° SE daylight
29 May - 19:02:53 10° W 19:05:21 15° SW 19:07:48 10° SSW daylight
30 May - 10:49:06 10° SSW 10:53:28 42° SE 10:57:48 10° ENE daylight
30 May - 12:30:28 10° W 12:34:59 55° NNW 12:39:28 10° ENE daylight
30 May - 14:12:56 10° WNW 14:17:09 35° N 14:21:18 10° ENE daylight
30 May - 15:54:51 10° WNW 15:59:18 55° NNE 16:03:41 10° E daylight
30 May - 17:36:35 10° WNW 17:40:47 41° SW 17:44:56 10° SSE daylight
31 May - 09:26:04 10° S 09:28:51 16° SE 09:31:38 10° E daylight
31 May - 11:05:14 10° SW 11:09:52 74° SSE 11:14:27 10° ENE daylight
31 May - 12:47:18 10° W 12:51:42 42° NNW 12:56:00 10° ENE daylight
31 May - 14:29:40 10° WNW 14:33:56 37° N 14:38:08 10° ENE daylight
31 May - 16:11:21 10° WNW 16:15:54 83° NNE 16:20:21 10° ESE daylight
31 May - 17:53:36 10° W 17:57:02 22° SW 18:00:26 10° S daylight
01 Jun - 09:41:01 10° SSW 09:45:03 30° SE 09:49:04 10° ENE daylight
01 Jun - 11:21:45 10° WSW 11:26:23 70° NNW 11:30:58 10° ENE daylight
01 Jun - 13:04:11 10° WNW 13:08:27 36° N 13:12:39 10° ENE daylight
01 Jun - 14:46:17 10° WNW 14:50:40 46° NNE 14:55:00 10° E daylight
01 Jun - 16:27:55 10° WNW 16:32:21 58° SW 16:36:43 10° SE daylight
01 Jun - 18:12:03 10° WSW 18:13:09 11° SW 18:14:14 10° SW daylight
02 Jun - 08:19:49 10° SE 08:20:33 10° SE 08:21:18 10° ESE daylight
02 Jun - 09:56:50 10° SW 10:01:22 54° SE 10:05:52 10° ENE daylight
02 Jun - 11:38:32 10° W 11:43:01 48° NNW 11:47:28 10° ENE daylight
02 Jun - 13:21:00 10° WNW 13:25:14 36° N 13:29:25 10° ENE daylight
02 Jun - 15:02:48 10° WNW 15:07:20 65° NNE 15:11:47 10° ESE daylight
02 Jun - 16:44:41 10° WNW 16:48:41 31° SW 16:52:37 10° SSE daylight
03 Jun - 08:33:11 10° S 08:36:40 21° SE 08:40:08 10° E daylight
03 Jun - 10:13:09 10° WSW 10:17:49 89° NNW 10:22:27 10° ENE daylight
03 Jun - 11:55:24 10° W 11:59:45 39° N 12:04:03 10° ENE daylight
03 Jun - 13:37:40 10° WNW 13:42:01 40° N 13:46:17 10° E daylight
03 Jun - 15:19:19 10° WNW 15:23:52 80° SSW 15:28:20 10° SE daylight
03 Jun - 17:02:00 10° W 17:04:52 17° SW 17:07:42 10° S daylight
04 Jun - 08:48:35 10° SSW 08:52:54 38° SE 08:57:12 10° ENE daylight
04 Jun - 10:29:47 10° WSW 10:34:23 59° NNW 10:38:57 10° ENE daylight
04 Jun - 12:12:16 10° WNW 12:16:32 35° N 12:20:44 10° ENE daylight
04 Jun - 13:54:14 10° WNW 13:58:43 52° NNE 14:03:08 10° E daylight
04 Jun - 15:35:57 10° WNW 15:40:17 45° SW 15:44:32 10° SE daylight
05 Jun - 07:25:51 10° SSE 07:28:20 14° SE 07:30:48 10° E daylight
05 Jun - 09:04:38 10° SW 09:09:17 68° SSE 09:13:53 10° ENE daylight
05 Jun - 10:46:37 10° W 10:51:04 44° NNW 10:55:29 10° ENE daylight
05 Jun - 12:29:01 10° WNW 12:33:20 37° N 12:37:33 10° ENE daylight
05 Jun - 14:10:45 10° WNW 14:15:20 78° NNE 14:19:50 10° ESE daylight
05 Jun - 15:52:52 10° W 15:56:32 24° SW 16:00:09 10° S daylight
06 Jun - 07:40:34 10° SSW 07:44:30 27° SE 07:48:25 10° E daylight
06 Jun - 09:21:06 10° WSW 09:25:47 75° NNW 09:30:25 10° ENE daylight
06 Jun - 11:03:30 10° WNW 11:07:49 37° N 11:12:06 10° ENE daylight
06 Jun - 12:45:39 10° WNW 12:50:04 44° NNE 12:54:26 10° E daylight
06 Jun - 14:27:17 10° WNW 14:31:49 64° SSW 14:36:16 10° SE daylight
06 Jun - 16:10:45 10° WSW 16:12:40 13° SW 16:14:34 10° SSW daylight
07 Jun - 07:56:17 10° SW 08:00:47 49° SE 08:05:17 10° ENE daylight
07 Jun - 09:37:50 10° W 09:42:24 51° NNW 09:46:55 10° ENE daylight
07 Jun - 11:20:19 10° WNW 11:24:37 36° N 11:28:51 10° ENE daylight
07 Jun - 13:02:10 10° WNW 13:06:45 61° NNE 13:11:14 10° ESE daylight
07 Jun - 14:44:00 10° WNW 14:48:09 35° SW 14:52:15 10° SSE daylight
